Weather Roundup
Issued by NWS

Home | Current Version | Previous Version | Text Only | Print | Product List | Glossary On
Versions: 1 2 3 4 5 6 7 8 9 10 11 12 13 14 15 16 17 18 19 20 21 22 23 24 25 26 27 28 29 30 31 32 33 34 35 36 37 38 39 40 41 42 43 44 45 46 47 48 49 50
714
NZUS93 KARX 180610
HRRWXR

CURRENT HOURLY OBSERVATIONS ACROSS
MUCH OF THE UPPER MISSISSIPPI VALLEY
NATIONAL WEATHER SERVICE LA CROSSE WI
1200 AM CST MON DEC 18 2017


...SOUTHEAST MINNESOTA...


CITY           SKY/WX    TMP DP  RH WIND       PRES   REMARKS
ROCHESTER      CLOUDY    28  27  96 SW8       29.92S FOG     WCI  20
ROCHESTER/MAYO CLOUDY    29  30 100 SW6       29.93F WCI  23
WINONA         CLOUDY    30  28  93 CALM      29.96F FOG
AUSTIN         CLOUDY    27  27 100 CALM      29.93S FOG
ALBERT LEA     CLOUDY    28  27  93 CALM      29.92F FOG
DODGE CENTER   CLOUDY    28  27  93 SW6       29.92S FOG     WCI  22
PRESTON        CLOUDY    28  27  96 SW5       29.92F FOG     WCI  23
OWATONNA       CLOUDY    28  27  93 SW7       29.94R FOG     WCI  21
FARIBAULT      CLOUDY    28  27  93 CALM      29.93F FOG
$$

...ELSEWHERE IN MINNESOTA...


CITY           SKY/WX    TMP DP  RH WIND       PRES   REMARKS
MINNEAPOLIS    CLOUDY    26  26 100 S6        29.93F FOG     WCI  19
INTNL FALLS    CLOUDY    25  22  88 VRB6      29.76F FOG     WCI  18
DULUTH         CLOUDY    23  22  96 SW8       29.85F WCI  14
RED WING       CLOUDY    28  25  86 CALM      29.94S FOG
REDWOOD FALLS  CLOUDY    29  26  89 S5        29.90F WCI  24
MANKATO        CLOUDY    25  24  96 S5        29.93F FOG     WCI  19
WORTHINGTON    CLOUDY    28  27  96 SW9       29.91F WCI  19
FAIRMONT       CLOUDY    26  23  88 SW3       29.93F
$$

...SOUTHWEST WISCONSIN...


CITY           SKY/WX    TMP DP  RH WIND       PRES   REMARKS
LA CROSSE      CLOUDY    31  28  89 W6        29.95F FOG     WCI  25
PRAIRIE DU CHI CLOUDY    32  29  87 SE3       29.93F FOG
BOSCOBEL       CLOUDY    34  29  82 CALM      29.94F
LONE ROCK      CLOUDY    32  31  96 SE5       29.94F FOG     WCI  27
PLATTEVILLE    CLOUDY    33  33 100 CALM      29.94F VSB 1/2
FORT MC COY    CLOUDY    30  28  94 CALM      29.95F FOG
CAMP DOUGLAS   CLOUDY    31  29  93 W5        29.92F WCI  26
MAUSTON-NEW LI CLOUDY    31  29  93 CALM      29.92F FOG
VIROQUA        CLOUDY    30  30 100 CALM      29.92F
WIS DELLS      CLOUDY    30  29  95 CALM      29.92F FOG
$$

...ELSEWHERE IN WISCONSIN...


CITY           SKY/WX    TMP DP  RH WIND       PRES   REMARKS
MILWAUKEE      DRIZZLE   35  33  92 S3        29.95F FOG
MADISON        MIX PCPN  32  31  96 S6        29.93F VSB 1   WCI  26
GREEN BAY      CLOUDY    30  27  88 W3        29.93F FOG
EAU CLAIRE     CLOUDY    27  25  92 SW7       29.93F FOG     WCI  19
BLACK RVR FLS  CLOUDY    30  30 100 CALM      29.94F FOG
MEDFORD        CLOUDY    25  25  97 W3        29.88F FOG
WAUSAU         LGT SNOW  27  27 100 W5        29.89F VSB 1   WCI  21
WIS RAPIDS     FOG       29  27  92 CALM      29.94F VSB 3/4
MARSHFIELD     CLOUDY    27  27 100 SW6       29.89F FOG     WCI  20
RICE LAKE      CLOUDY    27  26  99 CALM      29.92F FOG
$$

...NORTHEAST IOWA...


CITY           SKY/WX    TMP DP  RH WIND       PRES   REMARKS
WATERLOO       CLOUDY    28  26  92 W3        29.95F FOG
DUBUQUE        FOG       33  33 100 SW5       29.93F VSB 1   WCI  29
DECORAH        CLOUDY    32  30  93 CALM      29.92F FOG
MASON CITY     CLOUDY    28  26  92 SW7       29.95F FOG     WCI  21
CHARLES CITY   NOT AVBL
OELWEIN        MOCLDY    28  28 100 SE3       29.93F FOG
$$

...ELSEWHERE IN IOWA...


CITY           SKY/WX    TMP DP  RH WIND       PRES   REMARKS
DES MOINES     MOCLDY    29  25  85 W5        29.98F WCI  24
IOWA CITY      CLOUDY    38  37  97 W6        29.99F FOG     WCI  33
FORT DODGE     PTCLDY    23  21  93 SW3       29.95F FOG
MARSHALLTOWN   CLOUDY    28  26  92 S3        29.95F FOG
CEDAR RAPIDS   CLOUDY    36  36 100 W6        29.96R FOG     WCI  31
$$

...NORTHERN ILLINOIS...


CITY           SKY/WX    TMP DP  RH WIND       PRES   REMARKS
CHICAGO-OHARE  CLOUDY    40  31  70 S5        29.96F
CHICAGO-MIDWAY CLOUDY    44  38  79 SW8       29.97F
MOLINE         CLOUDY    41  41 100 SW7       29.97S FOG
ROCKFORD       LGT RAIN  36  35  96 S5        29.97F VSB 1   WCI  32
PEORIA         CLOUDY    43  43 100 SW7       30.00S
$$

NOTE: "FAIR" INDICATES FEW OR NO CLOUDS BELOW 12,000 FEET WITH NO
SIGNIFICANT WEATHER AND/OR OBSTRUCTIONS TO VISIBILITY. WIND
SPEEDS ARE IN MILES-PER-HOUR.




USA.gov is the U.S. government's official web portal to all federal, state and local government web resources and services.